Location: McDonald Observatory
(30.6717°N, 104.0221°W)
Time: 15:39:31
(UTC-05:00)

Daily predictions for brighter satellites

Satellite Brightness Start Highest point End
(mag) Time Altitude Azimuth Time Altitude Azimuth Time Altitude Azimuth
Cosmos 1805 3.2 20:35:52 10° S 20:39:44 75° E 20:43:38 10° N
Cosmos 1833 Rocket 3.6 20:35:01 10° N 20:39:53 30° ENE 20:44:45 10° SE
ATLAS 5 CENTAUR R/B 2.1 20:37:44 10° SW 20:42:18 71° WNW 20:47:11 10° NNE
Lacrosse 5 rocket 3.2 20:41:40 10° N 20:43:43 14° NE 20:45:43 10° ENE
ALOS 2.6 20:39:23 10° SSE 20:43:49 46° ENE 20:48:17 10° N
Cosmos 372 Rocket 3.9 20:40:09 10° S 20:45:14 81° ESE 20:50:23 10° NNE
Resurs 01 Rocket 2.6 20:42:42 10° SE 20:46:28 28° ENE 20:50:14 10° NNE
Cosmos 1733 4.2 20:44:10 10° SSE 20:47:25 26° E 20:50:42 10° NNE
COSMOS 2487 3.0 20:53:41 10° N 20:57:03 39° ENE 21:00:24 10° SE
CZ-4C R/B 3.2 20:53:47 10° SSE 20:57:27 20° ESE 21:01:20 10° ENE
Cosmos 1605 Rocket 4.4 20:51:47 10° SSW 20:58:01 72° W 21:04:23 10° N
Helios 1B rocket 3.5 20:55:29 10° NE 20:58:46 23° E 21:02:03 10° SSE
USA 215 4.2 20:53:57 10° ENE 20:58:58 23° ESE 21:03:57 10° S
Cosmos 1470 3.1 20:56:12 10° SSE 20:59:58 42° E 21:03:44 10° NNE
PSLV R/B 3.5 20:57:13 10° WSW 21:00:19 62° NNW 21:03:27 10° NE
Cosmos 1269 Rocket 4.1 20:58:28 10° N 21:03:41 58° ENE 21:08:52 10° SSE
Cosmos 2100 Rocket 4.2 20:57:58 10° SSE 21:03:59 49° E 21:10:05 10° NNE
Meteor 1-21 Rocket 4.4 20:59:25 10° N 21:05:14 59° E 21:11:03 10° SSE
H-2A R/B 2.9 21:04:50 10° SSE 21:08:37 54° ENE 21:12:28 10° N
Cosmos 1818 3.6 21:03:44 10° NNW 21:09:11 83° WSW 21:14:35 10° SSE
Gblst 52 Del rocket 4.3 21:02:50 10° SW 21:09:16 88° SE 21:14:59 10° NE
TIMED 4.4 21:06:18 10° S 21:10:37 64° ESE 21:14:56 10° NNE
Delta 7925 Rocket 4.5 21:05:22 10° SW 21:10:57 34° SSE 21:13:58 19° ESE
Cosmos 1408 Rocket 3.7 21:08:23 10° N 21:12:45 52° E 21:17:05 10° SSE
GPS 2-05 Rocket1 4.0 21:12:10 10° WNW 21:15:27 36° N 21:17:31 19° ENE
Resurs 1-3 3.7 21:12:31 10° SSE 21:16:47 54° ENE 21:21:04 10° N
OAO 2 Rocket 3.4 21:11:42 10° WSW 21:16:51 82° NNW 21:20:52 17° ENE
Spot 2 Rocket 3.5 21:11:54 10° SSE 21:16:56 62° ENE 21:21:59 10° N
SJ-6B 4.0 21:16:45 10° S 21:20:16 41° W 21:23:50 10° NNW
Yuri Rocket 4.5 21:17:37 10° W 21:21:33 27° SSW 21:24:00 16° SSE
Mugunghwa Rocket 4.3 21:16:16 10° WSW 21:22:17 47° SSE 21:25:46 24° ESE
ASTRO E2 4.1 21:19:23 10° SSW 21:22:27 21° SSE 21:22:49 21° SE
Cosmos 1076 Rocket 3.7 21:19:04 10° N 21:23:17 73° W 21:27:30 10° S
Helios 1A 3.7 21:22:28 27° ESE 21:23:40 32° ENE 21:27:25 10° N
Cosmos 1842 Rocket 4.0 21:20:04 10° SSE 21:24:08 37° E 21:28:11 10° NNE
Cosmos 2082 Rocket 2.1 21:19:05 10° NNW 21:24:46 87° ENE 21:30:24 10° SSE
Cosmos 1340 Rocket 3.0 21:23:28 10° N 21:27:19 46° E 21:28:50 30° SE
Cosmos 1802 Rocket 3.9 21:24:21 10° S 21:30:22 64° E 21:36:28 10° NNE
Cosmos 1271 Rocket 3.5 21:29:02 10° SSW 21:32:58 56° W 21:36:55 10° N
SeaSat 1 2.3 21:29:58 19° SSE 21:33:28 74° ENE 21:38:24 10° NNW
Meteor 1-16 Rocket 4.4 21:29:23 10° S 21:35:02 54° E 21:40:48 10° NNE
Envisat 3.7 21:34:27 31° E 21:35:20 33° ENE 21:39:50 10° N
Cosmos 1674 2.9 21:33:36 10° NNW 21:37:24 70° W 21:41:11 10° S
Cosmos 1459 Rocket 4.1 21:37:33 10° S 21:43:49 80° W 21:50:01 10° N
Meteor 2-17 Rocket 4.3 21:40:18 10° S 21:46:25 74° E 21:52:32 10° N
Cosmos-2242 4.4 21:44:29 10° SSW 21:48:27 38° W 21:52:26 10° NNW
Delta 198 4.5 21:47:29 10° SW 21:49:50 25° SSW 21:49:50 25° SSW
Cosmos 2061 Rocket 4.2 21:45:03 10° S 21:51:26 76° W 21:57:53 10° N
Geosat 4.2 21:47:39 10° NNE 21:52:39 70° WNW 21:57:37 10° SSW
Cosmos 2173 Rocket 4.3 21:48:34 10° SSW 21:54:40 66° W 22:00:54 10° N
Cosmos 1328 4.5 21:52:41 10° N 21:55:30 41° NNE 21:55:30 41° NNE
Cosmos 1864 Rocket 4.4 21:55:20 10° S 22:01:36 65° E 22:07:49 10° NNE
Timation 2 Rocket 4.4 21:57:29 10° NNW 22:03:31 57° WSW 22:07:41 19° S
Cosmos 2369 Rocket 2.0 22:01:50 10° SSW 22:07:28 82° ESE 22:13:06 10° NNE
SJ-11-01 4.4 22:08:52 62° NE 22:08:52 62° NE 22:13:04 10° N
Meteor 2-1 Rocket 4.1 22:09:22 63° ESE 22:09:33 64° E 22:15:10 10° NNE
H-2A R/B (2) 2.9 22:09:06 10° W 22:12:40 49° S 22:14:05 43° SSE
Cosmos 1939 Rocket 4.1 22:16:16 35° N 22:16:16 35° N 22:18:46 10° N
Aurora 2 Rocket 3.8 22:08:27 10° W 22:15:50 47° SSW 22:16:22 45° S
Resurs 01 Rocket 4.2 22:19:46 10° SW 22:22:53 19° W 22:26:00 10° NW
Lacrosse 5 rocket 2.7 22:19:32 10° NW 22:21:58 33° WNW 22:21:58 33° WNW
Cosmos 1833 Rocket 4.4 22:18:55 10° NW 22:23:39 28° WSW 22:28:02 11° SSW
Cosmos 1725 Rocket 4.4 22:32:27 10° SSW 22:38:32 59° W 22:44:39 10° N
USA 215 3.4 22:36:08 12° NE 22:42:11 71° NW 22:48:39 10° SW
Cosmos 2251 Rocket 4.3 22:39:47 10° NNW 22:44:34 50° W 22:44:34 50° W
CZ-4C R/B 3.3 22:40:41 10° WSW 22:45:27 38° NW 22:50:44 10° NNE
